Location: Stara Lesna
(49.1528°N, 20.2911°E)
Time: 18:49:46
(UTC+02:00)

Landsat 4 - Pass Details

Date: 13 July 2020
Orbit: 506 x 522 km, 98.2° (Epoch: 10 August)

Event Time Altitude Azimuth Distance (km) Brightness Sun altitude
Rises 00:44:29 0° 16° (NNE) 2,659 8.7 -19.1°
Reaches altitude 10° 00:46:37 10° 19° (NNE) 1,767 7.5 -19.1°
Maximum altitude 00:50:24 66° 103° (ESE) 576 3.8 -19.0°
Enters shadow 00:51:08 51° 158° (SSE) 661 3.8 -19.0°
